| time (UTC) | temp F | wind direction | speed MPH | gust MPH | rain 1hr in | rain 24hr in | rain mn in | humidity % | barometer mb |
| 20260506115025 | 53 | 0 | 0.0 | 0.0 | 0.00 | 0.00 | 0.00 | 89 | 1019.2 |
| 20260506114547 | 53 | 0 | 0.0 | 0.0 | 0.00 | 0.00 | 0.00 | 90 | 1019.3 |
| 20260506114025 | 53 | 0 | 0.0 | 1.0 | 0.00 | 0.00 | 0.00 | 90 | 1019.2 |
| 20260506113525 | 53 | 0 | 0.0 | 1.0 | 0.00 | 0.00 | 0.00 | 90 | 1019.1 |
| 20260506113039 | 53 | 0 | 0.0 | 1.0 | 0.00 | 0.00 | 0.00 | 90 | 1019.0 |
| 20260506112528 | 53 | 0 | 0.0 | 1.0 | 0.00 | 0.00 | 0.00 | 90 | 1019.0 |
| 20260506112030 | 53 | 0 | 0.0 | 1.0 | 0.00 | 0.00 | 0.00 | 90 | 1019.0 |
| 20260506111541 | 53 | 0 | 0.0 | 1.0 | 0.00 | 0.00 | 0.00 | 91 | 1019.0 |
| 20260506111022 | 53 | 0 | 0.0 | 0.0 | 0.00 | 0.00 | 0.00 | 91 | 1018.8 |
| 20260506110530 | 53 | 0 | 0.0 | 0.0 | 0.00 | 0.00 | 0.00 | 91 | 1018.9 |
| 20260506110038 | 53 | 0 | 0.0 | 0.0 | 0.00 | 0.00 | 0.00 | 91 | 1018.8 |
| 20260506105526 | 53 | 0 | 0.0 | 0.0 | 0.00 | 0.00 | 0.00 | 92 | 1018.8 |
| 20260506105025 | 53 | 0 | 0.0 | 0.0 | 0.00 | 0.00 | 0.00 | 92 | 1018.8 |
| 20260506104538 | 52 | 0 | 0.0 | 0.0 | 0.00 | 0.00 | 0.00 | 92 | 1018.7 |
| 20260506104025 | 52 | 0 | 0.0 | 0.0 | 0.00 | 0.00 | 0.00 | 93 | 1018.8 |
| 20260506103526 | 52 | 0 | 0.0 | 0.0 | 0.00 | 0.00 | 0.00 | 93 | 1018.9 |
| 20260506103038 | 52 | 0 | 0.0 | 0.0 | 0.00 | 0.00 | 0.00 | 93 | 1018.8 |
| 20260506102527 | 52 | 0 | 0.0 | 0.0 | 0.00 | 0.00 | 0.00 | 93 | 1018.7 |
| 20260506102025 | 52 | 0 | 0.0 | 0.0 | 0.00 | 0.00 | 0.00 | 93 | 1018.7 |
| 20260506101543 | 52 | 0 | 0.0 | 0.0 | 0.00 | 0.00 | 0.00 | 93 | 1018.8 |
| 20260506101026 | 52 | 0 | 0.0 | 0.0 | 0.00 | 0.00 | 0.00 | 93 | 1018.7 |
| 20260506100527 | 52 | 0 | 0.0 | 0.0 | 0.00 | 0.00 | 0.00 | 93 | 1018.7 |
| 20260506100042 | 52 | 0 | 0.0 | 0.0 | 0.00 | 0.00 | 0.00 | 93 | 1018.7 |
| 20260506095525 | 53 | 0 | 0.0 | 0.0 | 0.00 | 0.01 | 0.00 | 93 | 1018.7 |
| 20260506095025 | 53 | 0 | 0.0 | 0.0 | 0.00 | 0.01 | 0.00 | 92 | 1018.7 |
| 20260506094549 | 53 | 0 | 0.0 | 0.0 | 0.00 | 0.01 | 0.00 | 92 | 1018.7 |
| 20260506094022 | 53 | 0 | 0.0 | 0.0 | 0.00 | 0.01 | 0.00 | 92 | 1018.8 |
| 20260506093521 | 53 | 0 | 0.0 | 0.0 | 0.00 | 0.01 | 0.00 | 92 | 1018.8 |
| 20260506093038 | 52 | 0 | 0.0 | 0.0 | 0.00 | 0.01 | 0.00 | 92 | 1018.8 |
| 20260506092525 | 52 | 0 | 0.0 | 0.0 | 0.00 | 0.01 | 0.00 | 92 | 1018.7 |
| 20260506092025 | 52 | 0 | 0.0 | 0.0 | 0.00 | 0.01 | 0.00 | 92 | 1018.7 |
| 20260506091538 | 52 | 0 | 0.0 | 0.0 | 0.00 | 0.01 | 0.00 | 93 | 1018.7 |
| 20260506091025 | 52 | 0 | 0.0 | 0.0 | 0.00 | 0.01 | 0.00 | 93 | 1018.7 |
| 20260506090525 | 52 | 0 | 0.0 | 0.0 | 0.00 | 0.01 | 0.00 | 93 | 1018.6 |
| 20260506090038 | 52 | 0 | 0.0 | 0.0 | 0.00 | 0.01 | 0.00 | 93 | 1018.7 |
| 20260506085525 | 52 | 0 | 0.0 | 0.0 | 0.00 | 0.03 | 0.00 | 93 | 1018.6 |
| 20260506085025 | 52 | 0 | 0.0 | 0.0 | 0.00 | 0.03 | 0.00 | 93 | 1018.6 |
| 20260506084546 | 52 | 0 | 0.0 | 0.0 | 0.00 | 0.03 | 0.00 | 93 | 1018.7 |
| 20260506084026 | 52 | 0 | 0.0 | 0.0 | 0.00 | 0.03 | 0.00 | 93 | 1018.7 |
| 20260506083522 | 52 | 0 | 0.0 | 0.0 | 0.00 | 0.03 | 0.00 | 93 | 1018.7 |
| 20260506083042 | 52 | 0 | 0.0 | 0.0 | 0.00 | 0.03 | 0.00 | 93 | 1018.8 |
| 20260506082521 | 52 | 0 | 0.0 | 0.0 | 0.00 | 0.03 | 0.00 | 93 | 1018.8 |
| 20260506082024 | 52 | 0 | 0.0 | 1.0 | 0.00 | 0.03 | 0.00 | 93 | 1018.7 |
| 20260506081538 | 51 | 0 | 0.0 | 1.0 | 0.00 | 0.03 | 0.00 | 94 | 1018.8 |
| 20260506081023 | 51 | 0 | 0.0 | 0.0 | 0.00 | 0.03 | 0.00 | 94 | 1018.9 |
| 20260506080522 | 51 | 0 | 0.0 | 0.0 | 0.00 | 0.03 | 0.00 | 94 | 1018.7 |
| 20260506073525 | 51 | 0 | 0.0 | 0.0 | 0.00 | 0.08 | 0.00 | 93 | 1018.5 |
| 20260506073043 | 51 | 0 | 0.0 | 0.0 | 0.00 | 0.08 | 0.00 | 93 | 1018.4 |
| 20260506072525 | 51 | 0 | 0.0 | 0.0 | 0.00 | 0.08 | 0.00 | 93 | 1018.4 |
| 20260506072025 | 51 | 0 | 0.0 | 0.0 | 0.00 | 0.08 | 0.00 | 93 | 1018.4 |
| 20260506071542 | 51 | 0 | 0.0 | 0.0 | 0.00 | 0.08 | 0.00 | 92 | 1018.4 |
| 20260506071022 | 51 | 0 | 0.0 | 0.0 | 0.00 | 0.08 | 0.00 | 92 | 1018.4 |
| 20260506070525 | 51 | 0 | 0.0 | 0.0 | 0.00 | 0.08 | 0.00 | 92 | 1018.4 |
| 20260506062025 | 51 | 0 | 0.0 | 0.0 | 0.00 | 0.10 | 0.08 | 93 | 1018.2 |
| 20260506061538 | 51 | 0 | 0.0 | 0.0 | 0.00 | 0.10 | 0.08 | 93 | 1018.2 |
| 20260506061028 | 51 | 0 | 0.0 | 0.0 | 0.00 | 0.10 | 0.08 | 92 | 1018.1 |
| 20260506060526 | 51 | 0 | 0.0 | 0.0 | 0.00 | 0.10 | 0.08 | 92 | 1018.1 |
| 20260506051025 | 52 | 0 | 0.0 | 0.0 | 0.00 | 0.13 | 0.08 | 93 | 1017.8 |
| 20260506050523 | 52 | 0 | 0.0 | 0.0 | 0.00 | 0.13 | 0.08 | 93 | 1017.8 |
| 20260506045027 | 52 | 0 | 0.0 | 0.0 | 0.00 | 0.19 | 0.08 | 92 | 1017.7 |
| 20260506044545 | 52 | 0 | 0.0 | 0.0 | 0.00 | 0.19 | 0.08 | 92 | 1017.7 |
| 20260506044026 | 52 | 0 | 0.0 | 0.0 | 0.00 | 0.19 | 0.08 | 91 | 1017.6 |
| 20260506043529 | 53 | 0 | 0.0 | 0.0 | 0.00 | 0.19 | 0.08 | 91 | 1017.5 |
| 20260506043038 | 53 | 0 | 0.0 | 0.0 | 0.00 | 0.19 | 0.08 | 90 | 1017.4 |
| 20260506042525 | 53 | 0 | 0.0 | 0.0 | 0.00 | 0.19 | 0.08 | 90 | 1017.4 |
| 20260506042024 | 53 | 0 | 0.0 | 0.0 | 0.00 | 0.19 | 0.08 | 90 | 1017.4 |
| 20260506041541 | 53 | 0 | 0.0 | 0.0 | 0.00 | 0.19 | 0.08 | 90 | 1017.1 |
| 20260506041024 | 54 | 0 | 0.0 | 0.0 | 0.00 | 0.19 | 0.08 | 90 | 1017.2 |
| 20260506040524 | 54 | 0 | 0.0 | 0.0 | 0.00 | 0.19 | 0.08 | 89 | 1017.0 |
| 20260506040056 | 54 | 0 | 0.0 | 0.0 | 0.00 | 0.19 | 0.08 | 89 | 1017.0 |
| 20260506035526 | 54 | 0 | 0.0 | 0.0 | 0.00 | 0.21 | 0.08 | 89 | 1016.8 |
| 20260506035027 | 54 | 0 | 0.0 | 1.0 | 0.00 | 0.21 | 0.08 | 88 | 1016.7 |
| 20260506034538 | 54 | 0 | 0.0 | 1.0 | 0.00 | 0.21 | 0.08 | 88 | 1016.7 |
| 20260506034025 | 55 | 0 | 0.0 | 1.0 | 0.00 | 0.21 | 0.08 | 88 | 1016.5 |
| 20260506033525 | 55 | 0 | 0.0 | 1.0 | 0.00 | 0.21 | 0.08 | 88 | 1016.5 |
| 20260506033039 | 55 | 0 | 0.0 | 1.0 | 0.00 | 0.21 | 0.08 | 88 | 1016.5 |
| 20260506032525 | 55 | 0 | 0.0 | 1.0 | 0.00 | 0.21 | 0.08 | 87 | 1016.4 |
| 20260506032025 | 55 | 0 | 0.0 | 1.0 | 0.00 | 0.21 | 0.08 | 87 | 1016.3 |
| 20260506031553 | 56 | 0 | 0.0 | 1.0 | 0.00 | 0.21 | 0.08 | 87 | 1016.3 |
| 20260506031027 | 56 | 0 | 0.0 | 1.0 | 0.00 | 0.21 | 0.08 | 86 | 1016.2 |
| 20260506030527 | 56 | 0 | 0.0 | 1.0 | 0.00 | 0.21 | 0.08 | 86 | 1016.0 |
| 20260506030038 | 56 | 0 | 0.0 | 2.0 | 0.00 | 0.21 | 0.08 | 85 | 1016.1 |
| 20260506025525 | 57 | 0 | 0.0 | 2.0 | 0.00 | 0.21 | 0.08 | 84 | 1015.9 |
| 20260506025025 | 57 | 122 | 0.0 | 2.0 | 0.00 | 0.21 | 0.08 | 83 | 1016.0 |
| 20260506024540 | 58 | 125 | 0.0 | 5.0 | 0.00 | 0.21 | 0.08 | 83 | 1015.9 |
| 20260506024025 | 58 | 0 | 1.0 | 5.0 | 0.00 | 0.21 | 0.08 | 82 | 1016.0 |
| 20260506023524 | 59 | 0 | 0.0 | 4.0 | 0.00 | 0.21 | 0.08 | 80 | 1016.0 |
| 20260506023038 | 60 | 133 | 0.0 | 4.0 | 0.00 | 0.21 | 0.08 | 79 | 1016.0 |
| 20260506022525 | 60 | 0 | 0.0 | 5.0 | 0.00 | 0.21 | 0.08 | 79 | 1016.0 |
| 20260506022025 | 61 | 147 | 1.0 | 5.0 | 0.00 | 0.21 | 0.08 | 78 | 1015.9 |
| 20260506021538 | 61 | 133 | 0.0 | 7.0 | 0.00 | 0.21 | 0.08 | 78 | 1015.8 |
| 20260506021022 | 62 | 139 | 1.0 | 8.0 | 0.00 | 0.21 | 0.08 | 77 | 1015.8 |
| 20260506020527 | 61 | 100 | 0.0 | 8.0 | 0.00 | 0.21 | 0.08 | 79 | 1015.6 |
| 20260506020039 | 62 | 95 | 2.0 | 6.0 | 0.00 | 0.21 | 0.08 | 78 | 1015.6 |
| 20260506015526 | 62 | 137 | 1.0 | 3.0 | 0.00 | 0.21 | 0.08 | 78 | 1015.6 |
| 20260506015026 | 62 | 139 | 1.0 | 7.0 | 0.00 | 0.21 | 0.08 | 78 | 1015.6 |
| 20260506014537 | 62 | 0 | 0.0 | 7.0 | 0.00 | 0.21 | 0.08 | 78 | 1015.6 |
| 20260506014025 | 62 | 120 | 1.0 | 7.0 | 0.00 | 0.21 | 0.08 | 77 | 1015.6 |
| 20260506013522 | 63 | 140 | 1.0 | 6.0 | 0.00 | 0.21 | 0.08 | 77 | 1015.7 |
| 20260506013037 | 63 | 131 | 0.0 | 6.0 | 0.00 | 0.21 | 0.08 | 77 | 1015.5 |
| 20260506012525 | 63 | 137 | 1.0 | 6.0 | 0.00 | 0.21 | 0.08 | 78 | 1015.6 |
| 20260506012022 | 63 | 0 | 0.0 | 3.0 | 0.00 | 0.21 | 0.08 | 77 | 1015.6 |
| 20260506011540 | 62 | 113 | 0.0 | 4.0 | 0.00 | 0.21 | 0.08 | 79 | 1015.6 |
| 20260506011023 | 62 | 129 | 1.0 | 4.0 | 0.00 | 0.21 | 0.08 | 79 | 1015.6 |
| 20260506010525 | 62 | 143 | 0.0 | 2.0 | 0.00 | 0.21 | 0.08 | 79 | 1015.6 |
| 20260506010043 | 61 | 153 | 0.0 | 4.0 | 0.00 | 0.21 | 0.08 | 80 | 1015.5 |
| 20260506005522 | 62 | 136 | 0.0 | 4.0 | 0.00 | 0.21 | 0.08 | 79 | 1015.5 |
| 20260506005025 | 61 | 135 | 0.0 | 3.0 | 0.00 | 0.21 | 0.08 | 81 | 1015.5 |
| 20260506004538 | 60 | 112 | 0.0 | 3.0 | 0.00 | 0.21 | 0.08 | 81 | 1015.4 |
| 20260506004029 | 60 | 127 | 0.0 | 4.0 | 0.00 | 0.21 | 0.08 | 81 | 1015.3 |
| 20260506003525 | 61 | 123 | 0.0 | 4.0 | 0.00 | 0.21 | 0.08 | 80 | 1015.4 |
| 20260506003041 | 61 | 134 | 0.0 | 4.0 | 0.00 | 0.21 | 0.08 | 79 | 1015.3 |
| 20260506002525 | 61 | 155 | 0.0 | 3.0 | 0.00 | 0.21 | 0.08 | 80 | 1015.4 |
| 20260506002025 | 61 | 0 | 0.0 | 3.0 | 0.00 | 0.21 | 0.08 | 80 | 1015.3 |
| 20260506001538 | 61 | 110 | 0.0 | 3.0 | 0.00 | 0.21 | 0.08 | 81 | 1015.3 |
| 20260506001025 | 61 | 0 | 1.0 | 3.0 | 0.00 | 0.21 | 0.08 | 80 | 1015.3 |
| 20260506000524 | 61 | 0 | 0.0 | 3.0 | 0.00 | 0.21 | 0.08 | 80 | 1015.2 |
| 20260506000037 | 61 | 125 | 0.0 | 4.0 | 0.00 | 0.21 | 0.08 | 81 | 1015.2 |
| 20260505235525 | 61 | 0 | 0.0 | 5.0 | 0.00 | 0.21 | 0.08 | 80 | 1015.3 |
| 20260505235025 | 61 | 0 | 0.0 | 5.0 | 0.00 | 0.21 | 0.08 | 80 | 1015.2 |
| 20260505234540 | 60 | 0 | 0.0 | 4.0 | 0.00 | 0.21 | 0.08 | 81 | 1015.3 |
| 20260505234025 | 60 | 124 | 0.0 | 7.0 | 0.00 | 0.21 | 0.08 | 82 | 1015.2 |
| 20260505233525 | 60 | 141 | 1.0 | 7.0 | 0.00 | 0.21 | 0.08 | 82 | 1015.2 |
| 20260505233042 | 60 | 169 | 1.0 | 7.0 | 0.00 | 0.21 | 0.08 | 82 | 1015.3 |
| 20260505232526 | 60 | 124 | 1.0 | 7.0 | 0.00 | 0.21 | 0.08 | 82 | 1015.3 |
| 20260505232025 | 60 | 133 | 1.0 | 6.0 | 0.00 | 0.21 | 0.08 | 81 | 1015.3 |
| 20260505231546 | 60 | 133 | 0.0 | 6.0 | 0.00 | 0.21 | 0.08 | 82 | 1015.3 |
| 20260505231025 | 60 | 144 | 1.0 | 5.0 | 0.00 | 0.21 | 0.08 | 81 | 1015.3 |
| 20260505230521 | 60 | 125 | 1.0 | 5.0 | 0.00 | 0.21 | 0.08 | 81 | 1015.3 |
| 20260505230038 | 60 | 131 | 1.0 | 5.0 | 0.00 | 0.21 | 0.08 | 81 | 1015.3 |
| 20260505225530 | 60 | 108 | 1.0 | 5.0 | 0.00 | 0.21 | 0.08 | 80 | 1015.3 |
| 20260505225026 | 61 | 0 | 0.0 | 5.0 | 0.00 | 0.21 | 0.08 | 80 | 1015.3 |
| 20260505224539 | 61 | 118 | 1.0 | 4.0 | 0.00 | 0.21 | 0.08 | 79 | 1015.3 |
| 20260505224026 | 61 | 122 | 0.0 | 4.0 | 0.00 | 0.21 | 0.08 | 80 | 1015.3 |
| 20260505223529 | 61 | 0 | 0.0 | 5.0 | 0.00 | 0.21 | 0.08 | 80 | 1015.3 |
| 20260505223041 | 61 | 0 | 0.0 | 5.0 | 0.00 | 0.21 | 0.08 | 80 | 1015.3 |
| 20260505222528 | 61 | 0 | 2.0 | 5.0 | 0.00 | 0.21 | 0.08 | 79 | 1015.4 |
| 20260505222025 | 62 | 126 | 1.0 | 5.0 | 0.00 | 0.21 | 0.08 | 80 | 1015.3 |
| 20260505221540 | 62 | 136 | 0.0 | 5.0 | 0.00 | 0.21 | 0.08 | 80 | 1015.3 |
| 20260505221024 | 62 | 123 | 1.0 | 4.0 | 0.00 | 0.21 | 0.08 | 78 | 1015.4 |
| 20260505220524 | 63 | 140 | 1.0 | 4.0 | 0.00 | 0.21 | 0.08 | 77 | 1015.5 |
| 20260505220042 | 64 | 128 | 0.0 | 3.0 | 0.00 | 0.21 | 0.08 | 77 | 1015.5 |
| 20260505215525 | 64 | 169 | 0.0 | 3.0 | 0.00 | 0.21 | 0.08 | 77 | 1015.4 |
| 20260505215026 | 64 | 94 | 0.0 | 3.0 | 0.00 | 0.21 | 0.08 | 77 | 1015.4 |
| 20260505214547 | 64 | 110 | 1.0 | 3.0 | 0.00 | 0.21 | 0.08 | 77 | 1015.4 |
| 20260505214027 | 64 | 134 | 0.0 | 5.0 | 0.00 | 0.21 | 0.08 | 77 | 1015.4 |
| 20260505213525 | 63 | 137 | 0.0 | 5.0 | 0.00 | 0.21 | 0.08 | 78 | 1015.5 |
| 20260505213036 | 63 | 0 | 0.0 | 4.0 | 0.00 | 0.21 | 0.08 | 78 | 1015.5 |
| 20260505212527 | 63 | 137 | 0.0 | 4.0 | 0.00 | 0.21 | 0.08 | 80 | 1015.6 |
| 20260505212026 | 62 | 147 | 0.0 | 3.0 | 0.00 | 0.21 | 0.08 | 80 | 1015.6 |
| 20260505211539 | 62 | 0 | 0.0 | 3.0 | 0.00 | 0.21 | 0.08 | 80 | 1015.7 |
| 20260505211025 | 62 | 0 | 0.0 | 3.0 | 0.00 | 0.21 | 0.08 | 81 | 1015.7 |
| 20260505210524 | 61 | 0 | 0.0 | 3.0 | 0.00 | 0.21 | 0.08 | 81 | 1015.7 |
| 20260505210039 | 61 | 0 | 0.0 | 3.0 | 0.00 | 0.21 | 0.08 | 81 | 1015.7 |
| 20260505205530 | 61 | 131 | 0.0 | 3.0 | 0.00 | 0.21 | 0.08 | 80 | 1015.6 |
| 20260505205027 | 61 | 0 | 0.0 | 2.0 | 0.00 | 0.21 | 0.08 | 81 | 1015.7 |
| 20260505204539 | 61 | 0 | 0.0 | 3.0 | 0.00 | 0.21 | 0.08 | 81 | 1015.7 |
| 20260505204029 | 61 | 130 | 0.0 | 3.0 | 0.00 | 0.21 | 0.08 | 81 | 1015.6 |
| 20260505203525 | 60 | 0 | 0.0 | 3.0 | 0.00 | 0.21 | 0.08 | 82 | 1015.7 |
| 20260505203038 | 60 | 124 | 0.0 | 3.0 | 0.00 | 0.21 | 0.08 | 82 | 1015.7 |
| 20260505202525 | 60 | 0 | 0.0 | 3.0 | 0.00 | 0.21 | 0.08 | 82 | 1015.8 |
| 20260505202025 | 59 | 0 | 0.0 | 3.0 | 0.00 | 0.21 | 0.08 | 82 | 1015.8 |
| 20260505201538 | 59 | 129 | 0.0 | 3.0 | 0.00 | 0.21 | 0.08 | 82 | 1015.7 |
| 20260505201025 | 59 | 114 | 0.0 | 5.0 | 0.00 | 0.21 | 0.08 | 82 | 1015.7 |
| 20260505200525 | 59 | 122 | 1.0 | 5.0 | 0.00 | 0.21 | 0.08 | 82 | 1015.9 |
| 20260505200042 | 60 | 126 | 1.0 | 3.0 | 0.00 | 0.21 | 0.08 | 82 | 1015.8 |
| 20260505195527 | 60 | 125 | 0.0 | 3.0 | 0.00 | 0.21 | 0.08 | 83 | 1015.8 |
| 20260505195025 | 60 | 0 | 0.0 | 4.0 | 0.00 | 0.21 | 0.08 | 82 | 1015.8 |
| 20260505194540 | 60 | 138 | 0.0 | 4.0 | 0.00 | 0.21 | 0.08 | 82 | 1015.8 |
| 20260505194022 | 60 | 122 | 0.0 | 3.0 | 0.00 | 0.21 | 0.08 | 83 | 1015.8 |
| 20260505193525 | 61 | 0 | 1.0 | 4.0 | 0.00 | 0.21 | 0.08 | 82 | 1015.8 |
| 20260505193039 | 61 | 146 | 1.0 | 4.0 | 0.00 | 0.21 | 0.08 | 80 | 1015.8 |
| 20260505192524 | 61 | 129 | 0.0 | 2.0 | 0.00 | 0.21 | 0.08 | 83 | 1015.8 |
| 20260505192022 | 61 | 136 | 0.0 | 2.0 | 0.00 | 0.21 | 0.08 | 83 | 1015.7 |
| 20260505191540 | 61 | 142 | 0.0 | 2.0 | 0.00 | 0.21 | 0.08 | 82 | 1015.7 |
| 20260505191028 | 60 | 0 | 0.0 | 2.0 | 0.00 | 0.21 | 0.08 | 82 | 1015.7 |
| 20260505190525 | 60 | 0 | 0.0 | 2.0 | 0.00 | 0.21 | 0.08 | 82 | 1015.7 |
| 20260505190040 | 60 | 138 | 0.0 | 3.0 | 0.00 | 0.21 | 0.08 | 81 | 1015.7 |
| 20260505185526 | 61 | 0 | 0.0 | 3.0 | 0.00 | 0.21 | 0.08 | 80 | 1015.7 |
| 20260505185027 | 61 | 0 | 0.0 | 3.0 | 0.00 | 0.21 | 0.08 | 81 | 1015.7 |
| 20260505184537 | 60 | 0 | 0.0 | 3.0 | 0.00 | 0.21 | 0.08 | 81 | 1015.7 |
| 20260505184025 | 60 | 0 | 0.0 | 1.0 | 0.00 | 0.21 | 0.08 | 80 | 1015.7 |
| 20260505183525 | 59 | 0 | 0.0 | 1.0 | 0.00 | 0.21 | 0.08 | 83 | 1015.8 |
| 20260505183040 | 59 | 122 | 0.0 | 1.0 | 0.00 | 0.21 | 0.08 | 82 | 1015.8 |
| 20260505182526 | 59 | 133 | 0.0 | 1.0 | 0.00 | 0.21 | 0.08 | 82 | 1015.8 |
| 20260505182025 | 59 | 0 | 0.0 | 1.0 | 0.00 | 0.21 | 0.08 | 81 | 1015.7 |
| 20260505181545 | 59 | 0 | 0.0 | 1.0 | 0.00 | 0.21 | 0.08 | 82 | 1015.7 |
| 20260505181024 | 59 | 0 | 0.0 | 1.0 | 0.00 | 0.21 | 0.08 | 83 | 1015.8 |
| 20260505180524 | 58 | 0 | 0.0 | 1.0 | 0.00 | 0.21 | 0.08 | 84 | 1015.7 |
| 20260505180042 | 58 | 0 | 0.0 | 1.0 | 0.00 | 0.21 | 0.08 | 83 | 1015.7 |
| 20260505175525 | 58 | 0 | 0.0 | 2.0 | 0.00 | 0.21 | 0.08 | 87 | 1015.6 |
| 20260505175025 | 58 | 0 | 0.0 | 2.0 | 0.00 | 0.21 | 0.08 | 88 | 1015.6 |
| 20260505174542 | 58 | 0 | 0.0 | 1.0 | 0.00 | 0.21 | 0.08 | 88 | 1015.4 |
| 20260505174027 | 58 | 0 | 0.0 | 1.0 | 0.00 | 0.21 | 0.08 | 88 | 1015.5 |
| 20260505173527 | 58 | 0 | 0.0 | 2.0 | 0.00 | 0.21 | 0.08 | 88 | 1015.4 |
| 20260505173038 | 57 | 142 | 0.0 | 2.0 | 0.00 | 0.21 | 0.08 | 88 | 1015.4 |
| 20260505172525 | 57 | 141 | 0.0 | 0.0 | 0.00 | 0.21 | 0.08 | 90 | 1015.4 |
| 20260505172026 | 57 | 0 | 0.0 | 1.0 | 0.00 | 0.21 | 0.08 | 90 | 1015.5 |
| 20260505171545 | 57 | 0 | 0.0 | 1.0 | 0.00 | 0.21 | 0.08 | 91 | 1015.4 |
| 20260505171027 | 57 | 0 | 0.0 | 1.0 | 0.00 | 0.21 | 0.08 | 92 | 1015.4 |
| 20260505170525 | 56 | 0 | 0.0 | 1.0 | 0.00 | 0.21 | 0.08 | 93 | 1015.4 |
| 20260505170044 | 56 | 0 | 0.0 | 1.0 | 0.00 | 0.21 | 0.08 | 93 | 1015.5 |
| 20260505165525 | 56 | 123 | 0.0 | 1.0 | 0.00 | 0.21 | 0.08 | 94 | 1015.4 |
| 20260505165025 | 56 | 0 | 0.0 | 0.0 | 0.00 | 0.21 | 0.08 | 95 | 1015.5 |
| 20260505164542 | 56 | 0 | 0.0 | 0.0 | 0.00 | 0.21 | 0.08 | 95 | 1015.4 |
| 20260505164025 | 56 | 0 | 0.0 | 0.0 | 0.00 | 0.21 | 0.08 | 95 | 1015.5 |
| 20260505163528 | 55 | 0 | 0.0 | 0.0 | 0.00 | 0.21 | 0.08 | 96 | 1015.5 |
| 20260505163050 | 55 | 0 | 0.0 | 0.0 | 0.00 | 0.21 | 0.08 | 96 | 1015.5 |
| 20260505162521 | 55 | 0 | 0.0 | 1.0 | 0.00 | 0.21 | 0.08 | 97 | 1015.4 |
| 20260505162025 | 55 | 0 | 0.0 | 1.0 | 0.00 | 0.21 | 0.08 | 97 | 1015.4 |
| 20260505161538 | 55 | 0 | 0.0 | 1.0 | 0.00 | 0.21 | 0.08 | 97 | 1015.4 |
| 20260505161029 | 55 | 0 | 0.0 | 1.0 | 0.00 | 0.21 | 0.08 | 96 | 1015.3 |
| 20260505160526 | 55 | 0 | 0.0 | 0.0 | 0.00 | 0.21 | 0.08 | 97 | 1015.3 |
| 20260505153041 | 53 | 0 | 0.0 | 0.0 | 0.00 | 0.21 | 0.08 | 97 | 1015.0 |
| 20260505152524 | 53 | 0 | 0.0 | 0.0 | 0.00 | 0.21 | 0.08 | 97 | 1014.9 |
| 20260505152027 | 53 | 0 | 0.0 | 0.0 | 0.00 | 0.21 | 0.08 | 97 | 1014.9 |
| 20260505151540 | 53 | 0 | 0.0 | 0.0 | 0.00 | 0.21 | 0.08 | 97 | 1014.9 |
| 20260505151026 | 53 | 0 | 0.0 | 0.0 | 0.00 | 0.21 | 0.08 | 97 | 1014.9 |
| 20260505150526 | 53 | 0 | 0.0 | 0.0 | 0.00 | 0.21 | 0.08 | 97 | 1014.9 |
| 20260505140525 | 52 | 0 | 0.0 | 1.0 | 0.00 | 0.21 | 0.08 | 96 | 1014.7 |
| 20260505130111 | 51 | 0 | 0.0 | 1.0 | 0.00 | 0.21 | 0.08 | 97 | 1014.3 |
| 20260505125022 | 51 | 0 | 0.0 | 2.0 | 0.00 | 0.21 | 0.08 | 97 | 1014.3 |
| 20260505124540 | 51 | 0 | 0.0 | 2.0 | 0.00 | 0.21 | 0.08 | 97 | 1014.2 |
| 20260505124024 | 51 | 0 | 0.0 | 4.0 | 0.00 | 0.21 | 0.08 | 97 | 1014.1 |
| 20260505123525 | 51 | 130 | 0.0 | 4.0 | 0.00 | 0.21 | 0.08 | 97 | 1014.2 |
| 20260505123043 | 50 | 122 | 0.0 | 2.0 | 0.00 | 0.21 | 0.08 | 97 | 1014.3 |
| 20260505122526 | 50 | 0 | 0.0 | 0.0 | 0.00 | 0.21 | 0.08 | 97 | 1014.2 |
| 20260505122028 | 50 | 0 | 0.0 | 1.0 | 0.00 | 0.21 | 0.08 | 97 | 1014.3 |
| 20260505121540 | 50 | 0 | 0.0 | 1.0 | 0.00 | 0.21 | 0.08 | 97 | 1014.3 |
| 20260505121026 | 50 | 127 | 0.0 | 3.0 | 0.00 | 0.21 | 0.08 | 97 | 1014.4 |
| 20260505120526 | 50 | 0 | 0.0 | 3.0 | 0.00 | 0.21 | 0.08 | 97 | 1014.3 |
| 20260505120038 | 50 | 115 | 0.0 | 1.0 | 0.00 | 0.21 | 0.08 | 97 | 1014.3 |
| 20260505115527 | 50 | 0 | 0.0 | 0.0 | 0.00 | 0.21 | 0.08 | 97 | 1014.3 |